Location: Cave
(41.8160°N, 12.9350°E)
Time: 13:00:03
(UTC+02:00)

ISS - Pass Details

Date: 01 July 2019
Orbit: 409 x 418 km, 51.6° (Epoch: 23 July)

Event Time Altitude Azimuth Distance (km) Brightness Sun altitude
Exits shadow 04:09:49 19° 184° (S) 1,055 -2.2 -13.1°
Maximum altitude 04:11:29 29° 136° (SE) 773 -2.5 -12.9°
Drops below altitude 10° 04:14:25 10° 74° (ENE) 1,475 0.0 -12.6°
Sets 04:16:39 0° 63° (ENE) 2,339 1.5 -12.3°
